This is the latest recevied weather packets stored in our database for station/object W4SNA-2. If no packets are shown the sender has not sent any weather packets the latest 10 day(s).
| Time | Temp. | Humidity | Pressure | Rain* | Wind** | Luminosity | Snow |
|---|---|---|---|---|---|---|---|
| 1777740528 | 9.44° C | 60% | 1014.8 hPa | 0 mm | - | - | - |
| 1777740228 | 9.44° C | 58% | 1015 hPa | 0 mm | - | - | - |
| 1777739928 | 9.44° C | 59% | 1015.3 hPa | 0 mm | - | - | - |
| 1777739628 | 9.44° C | 58% | 1015.3 hPa | 0 mm | - | - | - |
| 1777739328 | 9.44° C | 58% | 1015.3 hPa | 0 mm | - | - | - |
| 1777739028 | 9.44° C | 61% | 1015.2 hPa | 0 mm | - | - | - |
| 1777738728 | 8.89° C | 62% | 1015.1 hPa | 0 mm | - | - | - |
| 1777738428 | 8.89° C | 60% | 1015.1 hPa | 0 mm | - | - | - |
| 1777738128 | 8.33° C | 62% | 1015.2 hPa | 0 mm | - | - | - |
| 1777737829 | 8.33° C | 62% | 1015.3 hPa | 0 mm | - | - | - |
| 1777737337 | 7.78° C | 63% | 1015.3 hPa | 0 mm | - | - | - |
| 1777737037 | 7.78° C | 64% | 1015.3 hPa | 0 mm | - | - | - |
| 1777736737 | 7.78° C | 64% | 1015.3 hPa | 0 mm | - | - | - |
| 1777736437 | 7.78° C | 64% | 1015.4 hPa | 0 mm | - | - | - |
| 1777736137 | 7.78° C | 63% | 1015.5 hPa | 0 mm | - | - | - |
| 1777735837 | 7.78° C | 67% | 1015.5 hPa | 0 mm | - | - | - |
| 1777735538 | 7.78° C | 65% | 1015.4 hPa | 0 mm | - | - | - |
| 1777735237 | 7.78° C | 65% | 1015.5 hPa | 0 mm | - | - | - |
| 1777734937 | 7.78° C | 63% | 1015.6 hPa | 0 mm | - | - | - |
| 1777734637 | 7.78° C | 65% | 1015.3 hPa | 0 mm | - | - | - |
| 1777734337 | 7.78° C | 63% | 1015.2 hPa | 0 mm | - | - | - |
| 1777734037 | 7.78° C | 62% | 1015.3 hPa | 0 mm | - | - | - |
| 1777733738 | 7.78° C | 63% | 1015.3 hPa | 0 mm | - | - | - |
| 1777733437 | 7.78° C | 64% | 1015.3 hPa | 0 mm | - | - | - |
| 1777733137 | 7.78° C | 64% | 1015.2 hPa | 0 mm | - | - | - |
* Rain latest hour (hover to see other rain measurements)
** Current wind speed in m/s (hover to see current wind gust speed)